Location: *
(45.5667°S, 177.5167°W)
Time: 16:22:51
(UTC+00:00)

IRIDIUM 106 - Pass Details

Date: 29 May 2022
Orbit: 776 x 779 km, 86.4° (Epoch: 29 June)

Event Time Altitude Azimuth Distance (km) Brightness Sun altitude
Rises 06:34:10 0° 1° (N) 3,252 7.6 -23.3°
Reaches altitude 10° 06:36:30 10° 1° (N) 2,333 6.9 -23.7°
Maximum altitude 06:41:44 84° 87° (E) 798 4.2 -24.6°
Enters shadow 06:45:39 19° 175° (S) 1,829 6.1 -25.3°
